DECAYED

STARLINK-1635, 46172 (Decayed)

Orbit data source: Space-Track

STARLINK-1635, 46172 was a payload satellite owned by SpaceX/Seattle (US) in LEO that was launched on Tue, 18 Aug 2020 UTC via an FALCON 9 launch vehicle from the Air Force Eastern Test Range (AFETR). Payload-class satellites include a variety of spacecraft equipped with specific instruments for various scientific and technological missions. These include communications satellites like Starlink; space stations such as the ISS; scientific satellites like the Hubble; Earth observation satellites from companies like Planet Labs, Umbra, and HawkEye 360; GPS; miniature CubeSats for education and research; and military/defense satellites.

Not visible in the next 10 days
Identifier
46172, 2020-057BH
Orbit
Decayed
Country
Flag of USUS
Related business
Manufacturer
SpaceX/Seattle
Mission
Decayed Commercial Communications
Bus & Motor
STARLINK, Unknown motor
Mass
260 kg wet, ~248 kg dry
Launch date (UTC)
2020-08-18 (6 years ago)
Launch vehicle
FALCON 9
Launch site
Air Force Eastern Test Range (AFETR)
Object type
Payload
Rocket body
Debris
Shape & HBR
Box + 1 Pan, 10.1 m
Radar Cross Section
13.562 m², Large (>1 m²)

Expand to show TLE details & history
Last TLE update: 2 months ago

TLE from 2 months ago
0 STARLINK-1635
1 46172U 20057BH  26188.07364398  .07365536  12319-4  68341-3 0  9999
2 46172  53.0206  19.8385 0013135 277.1947  82.7605 16.37633601327008
Epoch: 2026-07-07T01:46Z
TLE epoch observation values (Epoch: 2026-07-07T01:46:02.839Z)
Latitude
-0.00002°
Longitude
68.27715°
Altitude
171.957 km
Speed
7.805 km/s
True Right ascension
01h 19m 21s
True Declination
0° 00' 00"
Sunlit
Object was in daylight at epoch
Visualization orbit readout
Latitude
Unknown
Longitude
Unknown
Altitude
Unknown
Speed
Unknown
Apparent Right ascension
Unknown
Apparent Declination
Unknown
Sunlit
N/A
Visualization observer readout
Local Sidereal Time
01:44:48
Azimuth
Unknown
Elevation
Unknown
Doppler factor
Unknown
Orbital elements
Apogee altitude
181.001 km
Perigee altitude
163.792 km
Semi-major axis
6,550.534 km
Eccentricity
0.00131
Inclination
53.0206°
RAAN
19.8385°
Arg. of periapsis
277.1947°
True anomaly
82.90985°
Mean anomaly
82.7605°
Eccentric anomaly
82.83517°
Mean motion
4.09381 °/min
Orbital period
87.94 mins
BSTAR
0.00068341
Loading maneuver chart data...
Computing Atmospheric mass density...

Documentation

Showing up to 5 results
|